EW3751 Weather Reports


time (UTC)temp
F
wind
direction
speed
knots
gust
knots
rain 1hr
in
rain 24hr
in
rain mn
in
humidity
%
barometer
mb
20260507093716 46 43 3.5 9.6 0.00 9.99 6.66 97 1013.4
20260507093204 46 353 3.5 9.6 0.00 9.99 6.66 97 1013.3
20260507091704 46 45 4.3 9.6 0.00 1.11 6.66 97 1013.1
20260507091218 46 45 2.6 9.6 0.00 1.11 6.66 97 1013.0
20260507085707 46 33 7.0 8.7 0.00 1.11 6.66 97 1012.9
20260507085204 46 23 4.3 8.7 0.00 1.11 6.66 97 1012.8
20260507084206 46 358 4.3 9.6 0.00 1.11 6.66 97 1012.7
20260507082706 46 85 2.6 9.6 0.00 1.11 6.66 98 1012.6
20260507082205 46 25 2.6 9.6 0.00 1.11 6.66 98 1012.5
20260507081704 45 13 1.7 9.6 0.00 1.11 6.66 97 1012.5
20260507081209 45 85 2.6 9.6 0.00 1.11 6.66 97 1012.4
20260507080706 45 45 3.5 9.6 0.00 1.11 6.66 97 1012.3
20260507080206 46 38 5.2 9.6 0.00 1.11 6.66 98 1012.3
20260507075704 46 95 4.3 9.6 0.00 1.11 6.66 98 1012.3
20260507075204 46 43 1.7 9.6 0.00 1.11 6.66 98 1012.2
20260507073704 45 85 2.6 10.4 0.00 1.11 6.66 98 1012.0
20260507073213 45 25 4.3 10.4 0.00 1.11 6.66 99 1012.0
20260507072706 46 63 7.0 10.4 0.00 1.11 6.66 99 1012.0
20260507071705 45 43 7.8 10.4 0.00 1.11 6.66 99 1011.9
20260507071208 45 38 7.0 11.3 0.00 1.11 6.66 99 1011.7
20260507070706 45 25 4.3 11.3 0.00 1.11 6.66 99 1011.7
20260507070204 45 55 4.3 11.3 0.00 1.11 6.66 99 1011.7
20260507065704 45 73 4.3 11.3 0.00 1.11 6.66 99 1011.7
20260507065206 45 43 9.6 8.7 0.00 1.11 6.66 99 1011.5
20260507064705 45 38 3.5 8.7 0.00 1.11 6.66 99 1011.5
20260507063705 45 353 1.7 13.0 1.11 1.11 6.66 99 1011.4
20260507063206 45 55 5.2 13.0 1.11 1.11 6.66 100 1011.3
20260507062707 45 43 13.0 12.2 1.11 1.11 6.66 100 1011.3
20260507062204 45 353 2.6 12.2 1.11 1.11 6.66 100 1011.1
20260507061705 45 43 5.2 12.2 1.11 1.11 6.66 100 1011.0
20260507061226 45 25 6.1 12.2 1.11 1.11 6.66 100 1011.1
20260507060705 45 23 7.0 12.2 1.11 1.11 6.66 100 1010.9
20260507060206 45 43 7.8 9.6 1.11 1.11 6.66 100 1010.9
20260507055705 45 55 5.2 8.7 1.11 1.11 6.66 100 1010.9
20260507055204 45 13 3.5 8.7 1.11 1.11 6.66 100 1010.8
20260507054210 45 85 1.7 10.4 0.00 9.99 5.55 100 1010.5
20260507053704 45 358 6.1 10.4 0.00 9.99 5.55 100 1010.6
20260507052705 45 25 4.3 10.4 0.00 9.99 5.55 100 1010.5
20260507052209 45 25 3.5 10.4 1.11 9.99 5.55 100 1010.3
20260507051706 45 18 3.5 10.4 1.11 9.99 5.55 100 1010.4
20260507051205 45 23 2.6 11.3 1.11 9.99 5.55 100 1010.2
20260507050704 45 65 6.1 11.3 1.11 9.99 5.55 100 1010.3
20260507050221 45 73 3.5 11.3 1.11 9.99 5.55 100 1010.2
20260507045705 44 33 7.0 11.3 1.11 9.99 5.55 100 1010.2
20260507045204 44 25 4.3 11.3 1.11 9.99 5.55 100 1010.1
20260507044705 44 43 2.6 11.3 1.11 9.99 5.55 100 1010.1
20260507044204 44 55 5.2 11.3 1.11 9.99 5.55 99 1010.0
20260507043706 44 33 3.5 11.3 1.11 9.99 5.55 99 1010.1
20260507043205 44 93 3.5 11.3 1.11 9.99 5.55 99 1010.0
20260507042705 44 45 2.6 10.4 1.11 9.99 5.55 99 1009.9
20260507042207 45 83 4.3 10.4 0.00 8.88 4.44 99 1009.9
20260507041205 45 33 5.2 10.4 0.00 8.88 4.44 99 1009.8
20260507040705 45 23 4.3 10.4 0.00 8.88 4.44 99 1009.9
20260507040205 45 63 7.0 10.4 0.00 8.88 4.44 99 1009.9
20260507034704 45 18 4.3 10.4 0.00 8.88 4.44 99 1009.8
20260507034204 45 25 6.1 12.2 0.00 8.88 4.44 99 1009.6
20260507033706 45 65 10.4 12.2 0.00 8.88 4.44 99 1009.6
20260507033205 45 0 3.5 12.2 0.00 8.88 4.44 99 1009.6
20260507032706 45 83 0.9 12.2 0.00 8.88 4.44 99 1009.5
20260507032205 45 358 2.6 12.2 0.00 8.88 4.44 99 1009.5
20260507031706 45 343 3.5 12.2 0.00 8.88 4.44 99 1009.4
20260507030705 45 43 7.8 14.8 0.00 8.88 4.44 99 1009.4
20260507030205 45 23 6.1 14.8 0.00 8.88 4.44 99 1009.4
20260507025708 45 0 8.7 14.8 0.00 8.88 4.44 99 1009.4
20260507024704 46 343 5.2 14.8 0.00 8.88 4.44 99 1009.2
20260507024204 46 23 5.2 14.8 0.00 8.88 4.44 99 1009.2
20260507023727 46 45 8.7 13.0 0.00 8.88 4.44 99 1009.0
20260507023205 46 25 3.5 13.0 0.00 8.88 4.44 99 1009.1
20260507022705 46 25 5.2 12.2 0.00 8.88 4.44 99 1009.1
20260507021705 47 25 3.5 12.2 0.00 8.88 4.44 99 1008.9
20260507021204 47 345 2.6 12.2 0.00 8.88 4.44 99 1008.9
20260507020706 47 85 1.7 12.2 0.00 8.88 4.44 99 1008.8
20260507020204 47 65 4.3 12.2 0.00 8.88 4.44 99 1008.7
20260507015205 47 43 7.8 9.6 0.00 8.88 4.44 100 1008.6
20260507014704 47 43 2.6 9.6 0.00 8.88 4.44 100 1008.6
20260507014210 47 8 4.3 13.0 0.00 8.88 4.44 99 1008.6
20260507013204 47 8 3.5 13.0 0.00 8.88 4.44 99 1008.4
20260507012705 47 38 8.7 13.0 1.11 8.88 4.44 99 1008.3
20260507012206 47 73 5.2 13.0 1.11 8.88 4.44 99 1008.3
20260507011704 47 13 7.8 13.0 1.11 8.88 4.44 99 1008.3
20260507011205 47 33 4.3 12.2 1.11 8.88 4.44 99 1008.3
20260507010704 48 43 7.0 11.3 1.11 8.88 4.44 99 1008.3
20260507005204 48 55 4.3 11.3 2.22 8.88 4.44 99 1008.1
20260507004706 48 345 3.5 9.6 2.22 8.88 4.44 100 1008.1
20260507003704 48 13 5.2 11.3 2.22 8.88 4.44 99 1008.1
20260507003205 48 23 6.1 11.3 1.11 7.77 3.33 99 1008.0
20260507002705 48 23 5.2 11.3 2.22 7.77 3.33 99 1007.9
20260507001705 48 38 4.3 11.3 2.22 7.77 3.33 99 1007.9
20260507001204 48 8 3.5 11.3 2.22 7.77 3.33 99 1007.9
20260507000726 48 25 5.2 10.4 2.22 7.77 3.33 99 1007.8
20260507000206 48 358 1.7 9.6 2.22 7.77 3.33 99 1007.9
20260506235704 48 43 3.5 9.6 1.11 6.66 2.22 99 1007.8
20260506234705 48 63 5.2 9.6 1.11 7.77 2.22 99 1007.8
20260506234206 48 43 5.2 10.4 1.11 7.77 2.22 99 1007.8
20260506233704 48 33 6.1 10.4 1.11 7.77 2.22 99 1007.8
20260506233205 48 25 2.6 10.4 0.00 6.66 1.11 99 1007.8
20260506232704 48 25 7.0 10.4 0.00 6.66 1.11 99 1007.8
20260506232207 48 78 5.2 10.4 0.00 6.66 1.11 99 1007.8
20260506231705 48 18 7.0 10.4 0.00 6.66 1.11 99 1007.8
20260506230704 48 33 7.8 11.3 0.00 6.66 1.11 99 1007.6
20260506230205 48 73 4.3 11.3 1.11 6.66 1.11 99 1007.6
20260506225205 48 43 3.5 11.3 1.11 6.66 1.11 99 1007.6
20260506224705 48 43 6.1 11.3 1.11 6.66 1.11 99 1007.5
20260506224204 48 38 3.5 14.8 1.11 6.66 1.11 99 1007.6
20260506223704 48 55 7.0 14.8 1.11 6.66 1.11 99 1007.6
20260506222706 49 43 3.5 14.8 1.11 6.66 1.11 99 1007.6
20260506222204 49 43 2.6 14.8 1.11 6.66 1.11 99 1007.5
20260506220706 49 23 7.0 13.0 0.00 5.55 0.00 99 1007.4
20260506220204 49 53 4.3 13.0 0.00 5.55 5.55 99 1007.4
20260506215704 49 8 6.1 13.0 0.00 5.55 5.55 99 1007.4
20260506215207 49 125 3.5 13.0 0.00 5.55 5.55 99 1007.4
20260506214704 49 358 4.3 13.0 0.00 6.66 5.55 99 1007.4
20260506214204 49 53 2.6 13.9 0.00 6.66 5.55 99 1007.4
20260506213705 49 345 1.7 13.9 0.00 6.66 5.55 99 1007.2
20260506213206 49 18 4.3 13.9 0.00 6.66 5.55 99 1007.1
20260506212705 49 33 7.0 13.9 0.00 6.66 5.55 99 1007.0
20260506211706 50 43 4.3 13.9 0.00 6.66 5.55 99 1007.0
20260506211205 50 23 5.2 13.9 0.00 6.66 5.55 99 1006.9
20260506210704 50 23 5.2 13.9 0.00 6.66 5.55 99 1007.0
20260506210205 50 63 4.3 13.0 0.00 6.66 5.55 99 1006.9
20260506205204 50 25 7.8 13.0 0.00 6.66 5.55 99 1006.7
20260506204705 50 63 3.5 13.0 0.00 6.66 5.55 99 1006.7
20260506204205 50 38 7.8 13.0 0.00 6.66 5.55 99 1006.6
20260506203705 50 25 8.7 11.3 0.00 6.66 5.55 99 1006.7
20260506203206 50 0 7.0 11.3 0.00 6.66 5.55 99 1006.7
20260506202705 51 53 6.1 11.3 0.00 6.66 5.55 99 1006.6
20260506202205 51 55 6.1 11.3 0.00 6.66 5.55 99 1006.6
20260506201707 51 45 5.2 10.4 0.00 6.66 5.55 99 1006.5
20260506201204 51 33 5.2 10.4 0.00 6.66 5.55 99 1006.5
20260506200206 51 85 4.3 10.4 0.00 6.66 5.55 99 1006.5
20260506195204 51 45 5.2 9.6 0.00 6.66 5.55 99 1006.4
20260506194705 51 63 7.0 9.6 0.00 6.66 5.55 99 1006.5
20260506194224 51 43 5.2 12.2 0.00 6.66 5.55 99 1006.5
20260506193704 51 45 5.2 12.2 0.00 6.66 5.55 99 1006.5
20260506193206 51 83 5.2 12.2 0.00 6.66 5.55 99 1006.4
20260506192704 51 33 4.3 12.2 0.00 6.66 5.55 99 1006.5
20260506192204 51 55 4.3 12.2 0.00 6.66 5.55 99 1006.3
20260506191706 51 38 4.3 12.2 0.00 6.66 5.55 99 1006.3
20260506191204 51 43 7.8 14.8 0.00 6.66 5.55 99 1006.3
20260506190706 51 83 6.1 14.8 0.00 6.66 5.55 99 1006.2
20260506190205 51 53 7.0 14.8 0.00 6.66 5.55 99 1006.1
20260506185705 51 85 7.8 14.8 0.00 6.66 5.55 99 1006.1
20260506185204 51 55 7.0 14.8 0.00 6.66 5.55 99 1006.0
20260506184204 51 65 13.9 14.8 0.00 6.66 5.55 99 1005.9
20260506183705 51 65 2.6 14.8 0.00 6.66 5.55 99 1005.8
20260506183206 51 25 3.5 14.8 0.00 6.66 5.55 99 1005.8
20260506182704 51 53 7.0 14.8 0.00 6.66 5.55 99 1005.7
20260506182204 51 63 7.8 14.8 0.00 6.66 5.55 99 1005.8
20260506181706 51 63 7.8 14.8 0.00 6.66 5.55 99 1005.8
20260506181205 51 65 4.3 14.8 0.00 6.66 5.55 99 1005.8
20260506180704 51 95 3.5 14.8 1.11 6.66 5.55 99 1005.8
20260506180206 52 38 6.1 11.3 1.11 6.66 5.55 99 1005.8
20260506175704 52 55 6.1 11.3 1.11 6.66 5.55 99 1005.7
20260506175204 52 13 6.1 8.7 1.11 6.66 5.55 99 1005.7
20260506174706 52 133 5.2 7.0 1.11 6.66 5.55 99 1005.7
20260506174204 52 18 2.6 7.0 1.11 6.66 5.55 99 1005.8
20260506173704 52 25 3.5 7.0 1.11 6.66 5.55 99 1005.9
20260506173206 52 0 4.3 7.0 1.11 6.66 5.55 99 1005.9
20260506172704 52 63 2.6 7.0 1.11 7.77 5.55 99 1005.9
20260506171705 52 0 3.5 5.2 1.11 7.77 5.55 99 1005.7
20260506170204 52 43 1.7 7.8 0.00 6.66 4.44 99 1005.5
20260506165704 52 38 1.7 7.8 0.00 6.66 4.44 99 1005.6
20260506165204 52 23 1.7 7.8 0.00 6.66 4.44 99 1005.5
20260506164707 52 65 2.6 7.8 0.00 6.66 4.44 99 1005.4
20260506164204 52 33 1.7 7.0 1.11 6.66 4.44 99 1005.4
20260506163705 52 8 3.5 7.0 1.11 6.66 4.44 99 1005.4
20260506163207 52 18 2.6 7.0 1.11 6.66 4.44 99 1005.4
20260506162704 52 45 2.6 7.0 1.11 6.66 4.44 99 1005.4
20260506161705 52 8 4.3 7.0 1.11 6.66 4.44 98 1005.3
20260506161211 52 0 4.3 8.7 1.11 6.66 4.44 98 1005.4
20260506160706 52 8 2.6 8.7 1.11 6.66 4.44 99 1005.3
20260506160225 52 25 1.7 8.7 1.11 6.66 4.44 99 1005.2
20260506155704 52 8 3.5 8.7 1.11 6.66 4.44 98 1005.2
20260506155204 52 78 5.2 8.7 1.11 6.66 4.44 98 1005.3
20260506154706 52 25 3.5 8.7 1.11 6.66 4.44 98 1005.3
20260506154204 52 63 7.0 10.4 0.00 5.55 3.33 98 1005.5
20260506153704 52 43 3.5 10.4 0.00 5.55 3.33 98 1005.6
20260506152706 52 65 2.6 10.4 0.00 5.55 3.33 98 1005.6
20260506152205 52 55 7.0 10.4 0.00 5.55 3.33 98 1005.5
20260506151705 52 0 6.1 10.4 0.00 5.55 3.33 98 1005.6
20260506151204 52 18 2.6 10.4 0.00 5.55 3.33 98 1005.6
20260506150705 52 63 5.2 10.4 0.00 5.55 3.33 98 1005.6
20260506150204 52 38 5.2 8.7 0.00 5.55 3.33 98 1005.6
20260506145707 52 73 5.2 8.7 0.00 5.55 3.33 98 1005.6
20260506144704 52 45 4.3 8.7 0.00 5.55 3.33 98 1005.5
20260506144204 52 83 4.3 9.6 0.00 5.55 3.33 98 1005.4
20260506143705 51 83 5.2 9.6 0.00 5.55 3.33 98 1005.4
20260506143204 51 93 5.2 9.6 0.00 5.55 3.33 98 1005.4
20260506142705 51 325 3.5 9.6 0.00 5.55 3.33 98 1005.5
20260506142204 51 53 6.1 9.6 0.00 5.55 3.33 98 1005.5
20260506141706 51 25 4.3 9.6 0.00 5.55 3.33 98 1005.6
20260506141204 51 38 3.5 9.6 0.00 5.55 3.33 98 1005.6
20260506140704 51 78 1.7 9.6 0.00 5.55 3.33 98 1005.6
20260506140204 51 13 3.5 9.6 0.00 5.55 3.33 98 1005.7
20260506135706 51 18 1.7 8.7 0.00 5.55 3.33 98 1005.6
20260506135204 51 0 1.7 8.7 0.00 5.55 3.33 98 1005.6
20260506134704 51 65 4.3 8.7 0.00 5.55 3.33 98 1005.6
20260506134206 51 73 6.1 8.7 0.00 5.55 3.33 98 1005.6
20260506133704 51 43 3.5 8.7 0.00 5.55 3.33 98 1005.6
20260506132704 51 45 4.3 8.7 0.00 5.55 3.33 98 1005.6
20260506132206 51 23 3.5 8.7 0.00 5.55 3.33 98 1005.6
20260506131706 51 38 7.8 8.7 0.00 5.55 3.33 98 1005.5
20260506130206 51 83 2.6 8.7 0.00 5.55 3.33 98 1005.6
20260506125704 51 65 2.6 8.7 0.00 5.55 3.33 98 1005.5
20260506125204 51 103 2.6 8.7 0.00 5.55 3.33 98 1005.5
20260506124706 51 33 6.1 7.8 0.00 5.55 3.33 98 1005.4
20260506124205 51 73 6.1 7.8 0.00 5.55 3.33 98 1005.5
20260506123704 51 25 5.2 7.8 0.00 5.55 3.33 98 1005.5
20260506123206 51 8 3.5 7.8 0.00 5.55 3.33 98 1005.6
20260506122705 51 53 6.1 7.8 0.00 5.55 3.33 98 1005.6
20260506122204 51 43 2.6 7.8 0.00 5.55 3.33 98 1005.5
20260506121705 51 23 1.7 7.8 0.00 5.55 3.33 98 1005.6
20260506121205 51 78 3.5 9.6 0.00 5.55 3.33 98 1005.5
20260506120706 51 43 1.7 9.6 0.00 5.55 3.33 98 1005.4
20260506115206 51 25 3.5 8.7 0.00 5.55 3.33 98 1005.4
20260506114704 51 83 2.6 8.7 0.00 5.55 3.33 98 1005.3
20260506114209 51 43 5.2 9.6 0.00 5.55 3.33 98 1005.3
20260506113706 50 358 3.5 9.6 0.00 5.55 3.33 98 1005.4
20260506113204 50 73 6.1 9.6 0.00 5.55 3.33 98 1005.4
20260506112707 50 13 2.6 9.6 0.00 5.55 3.33 98 1005.5
20260506112207 50 38 2.6 9.6 0.00 5.55 3.33 98 1005.4
20260506111704 50 53 1.7 8.7 0.00 5.55 3.33 98 1005.5
20260506111204 50 55 6.1 9.6 0.00 5.55 3.33 98 1005.5
20260506110705 50 53 6.1 9.6 0.00 5.55 3.33 99 1005.5
20260506110223 50 38 3.5 9.6 0.00 5.55 3.33 99 1005.4
20260506105704 50 65 8.7 9.6 1.11 5.55 3.33 99 1005.3
20260506105215 50 55 5.2 9.6 1.11 5.55 3.33 99 1005.3
20260506104705 49 65 7.0 9.6 1.11 5.55 3.33 99 1005.3
20260506104211 49 55 5.2 9.6 1.11 5.55 3.33 99 1005.4
20260506103205 49 38 5.2 9.6 1.11 5.55 3.33 99 1005.3
20260506102704 49 93 3.5 9.6 2.22 5.55 3.33 99 1005.4
20260506102211 49 18 4.3 9.6 2.22 5.55 3.33 99 1005.3
20260506101704 49 85 3.5 9.6 2.22 5.55 3.33 99 1005.3
20260506101204 49 45 6.1 9.6 2.22 5.55 3.33 99 1005.4
20260506100704 49 53 6.1 9.6 2.22 5.55 3.33 99 1005.4
20260506100231 49 13 5.2 9.6 2.22 5.55 3.33 99 1005.4
20260506095704 49 45 7.0 9.6 1.11 4.44 2.22 99 1005.3
20260506095206 49 53 3.5 9.6 1.11 4.44 2.22 99 1005.4
20260506094704 49 343 4.3 9.6 1.11 4.44 2.22 99 1005.3